Total_Precipitation_Accumulation
0.43 0.44 0.44 0.42 0.42 0.44 0.49 0.58 0.72 0.72 0.60 0.51 0.52 0.55 0.56 0.56 0.59 0.53 0.48 0.57 0.60 0.60 0.63 0.66 0.67 0.65 0.62 0.63 0.66 0.70 0.75 0.79 0.84 0.92 0.99 1.06 1.23 1.49
0.36 0.38 0.39 0.39 0.41 0.45 0.50 0.58 0.69 0.82 0.82 0.67 0.60 0.61 0.62 0.60 0.61 0.50 0.44 0.53 0.50 0.51 0.52 0.53 0.52 0.50 0.51 0.53 0.56 0.58 0.60 0.62 0.68 0.79 0.92 1.03 1.15 1.28
0.32 0.34 0.36 0.38 0.41 0.45 0.51 0.59 0.68 0.78 0.84 0.76 0.65 0.60 0.57 0.52 0.47 0.38 0.32 0.30 0.30 0.37 0.37 0.36 0.37 0.39 0.38 0.40 0.45 0.50 0.52 0.56 0.62 0.71 0.82 0.94 1.04 1.12
0.32 0.34 0.37 0.41 0.48 0.53 0.58 0.63 0.65 0.66 0.67 0.63 0.53 0.46 0.41 0.35 0.30 0.23 0.19 0.16 0.15 0.22 0.23 0.23 0.24 0.25 0.26 0.27 0.32 0.40 0.46 0.52 0.56 0.59 0.62 0.66 0.74 0.88
0.33 0.36 0.40 0.44 0.47 0.48 0.48 0.48 0.46 0.43 0.42 0.41 0.36 0.30 0.26 0.22 0.19 0.14 0.10 0.09 0.07 0.09 0.10 0.10 0.12 0.16 0.19 0.23 0.27 0.31 0.33 0.33 0.33 0.35 0.39 0.42 0.47 0.55
0.38 0.41 0.44 0.44 0.42 0.40 0.37 0.35 0.32 0.28 0.26 0.26 0.27 0.23 0.20 0.16 0.13 0.10 0.07 0.05 0.04 0.03 0.04 0.06 0.09 0.13 0.15 0.14 0.13 0.12 0.12 0.14 0.17 0.22 0.28 0.31 0.33 0.36
0.41 0.41 0.40 0.40 0.37 0.31 0.26 0.23 0.20 0.20 0.24 0.28 0.28 0.23 0.15 0.10 0.07 0.04 0.04 0.04 0.02 0.02 0.04 0.04 0.05 0.04 0.03 0.03 0.05 0.06 0.09 0.14 0.20 0.25 0.30 0.32 0.34 0.35
0.37 0.32 0.29 0.28 0.24 0.22 0.20 0.19 0.21 0.25 0.33 0.37 0.30 0.18 0.07 0.04 0.03 0.05 0.09 0.14 0.09 0.02 0.04 0.03 0.01 0.01 0.01 0.03 0.08 0.10 0.13 0.16 0.19 0.22 0.25 0.26 0.27 0.28
0.29 0.24 0.19 0.15 0.12 0.10 0.10 0.12 0.16 0.21 0.23 0.20 0.13 0.04 0.03 0.04 0.11 0.19 0.17 0.18 0.12 0.02 0.05 0.04 0.02 0.03 0.02 0.04 0.08 0.09 0.10 0.12 0.15 0.19 0.21 0.22 0.23 0.24
0.17 0.13 0.10 0.07 0.06 0.07 0.10 0.15 0.11 0.07 0.05 0.03 0.03 0.04 0.05 0.07 0.15 0.26 0.23 0.16 0.06 0.02 0.04 0.06 0.02 0.02 0.02 0.03 0.04 0.06 0.09 0.14 0.19 0.21 0.21 0.21 0.22 0.22
0.06 0.04 0.04 0.03 0.04 0.12 0.18 0.19 0.09 0.02 0.01 0.02 0.06 0.06 0.06 0.06 0.06 0.15 0.21 0.23 0.14 0.02 0.02 0.04 0.03 0.02 0.02 0.01 0.02 0.04 0.08 0.09 0.10 0.10 0.11 0.13 0.15 0.19
0.02 0.02 0.03 0.04 0.09 0.17 0.17 0.14 0.06 0.02 0.04 0.03 0.01 0.00 0.00 0.00 0.02 0.09 0.27 0.50 0.37 0.17 0.01 0.08 0.12 0.15 0.23 0.03 0.01 0.02 0.03 0.05 0.07 0.08 0.10 0.11 0.13 0.15
0.05 0.03 0.03 0.08 0.15 0.17 0.11 0.04 0.04 0.09 0.06 0.01 0.00 0.00 0.00 0.01 0.01 0.02 0.13 0.49 0.69 0.41 0.06 0.34 0.48 0.23 0.33 0.14 0.01 0.01 0.02 0.10 0.17 0.18 0.21 0.24 0.27 0.33
0.06 0.05 0.07 0.14 0.14 0.08 0.03 0.03 0.06 0.05 0.01 0.00 0.01 0.01 0.01 0.02 0.02 0.02 0.03 0.11 0.31 0.43 0.23 0.49 0.84 0.49 0.52 0.32 0.06 0.01 0.02 0.14 0.32 0.37 0.38 0.45 0.51 0.52
0.08 0.11 0.12 0.11 0.06 0.02 0.01 0.02 0.02 0.01 0.01 0.04 0.04 0.03 0.02 0.02 0.03 0.04 0.03 0.03 0.04 0.06 0.12 0.25 0.55 0.55 0.60 0.50 0.23 0.07 0.09 0.13 0.27 0.40 0.50 0.60 0.70 0.71
0.14 0.13 0.10 0.06 0.04 0.02 0.01 0.01 0.01 0.01 0.04 0.08 0.07 0.05 0.03 0.03 0.05 0.08 0.13 0.12 0.13 0.05 0.03 0.09 0.22 0.43 0.49 0.30 0.33 0.26 0.23 0.31 0.32 0.43 0.58 0.66 0.77 0.91
0.20 0.12 0.08 0.06 0.04 0.02 0.01 0.01 0.01 0.01 0.03 0.06 0.10 0.10 0.07 0.06 0.05 0.08 0.17 0.23 0.27 0.17 0.09 0.05 0.06 0.12 0.24 0.33 0.35 0.25 0.26 0.37 0.50 0.59 0.71 0.70 0.69 0.89
0.17 0.11 0.08 0.06 0.04 0.03 0.03 0.02 0.02 0.03 0.06 0.11 0.13 0.15 0.17 0.15 0.12 0.09 0.15 0.26 0.27 0.19 0.16 0.13 0.12 0.15 0.14 0.15 0.26 0.37 0.40 0.48 0.53 0.55 0.67 0.77 0.72 0.70
0.14 0.09 0.07 0.06 0.05 0.05 0.05 0.06 0.06 0.05 0.09 0.15 0.19 0.21 0.23 0.19 0.17 0.16 0.17 0.19 0.18 0.16 0.16 0.18 0.25 0.47 0.47 0.24 0.14 0.35 0.63 0.68 0.56 0.54 0.64 0.82 0.95 0.81
0.12 0.09 0.07 0.06 0.07 0.08 0.10 0.12 0.12 0.09 0.10 0.14 0.17 0.19 0.23 0.25 0.22 0.19 0.19 0.22 0.24 0.19 0.14 0.11 0.18 0.50 0.82 0.68 0.47 0.40 0.49 0.70 0.84 0.89 0.79 0.70 0.77 0.72
0.11 0.10 0.09 0.10 0.12 0.14 0.16 0.17 0.17 0.17 0.17 0.20 0.20 0.20 0.25 0.31 0.25 0.18 0.19 0.18 0.22 0.23 0.21 0.13 0.10 0.21 0.46 0.62 0.49 0.33 0.40 0.48 0.74 1.13 1.09 0.86 0.70 0.58
0.14 0.13 0.13 0.13 0.18 0.22 0.23 0.22 0.21 0.17 0.19 0.21 0.21 0.23 0.26 0.33 0.33 0.26 0.24 0.26 0.24 0.24 0.22 0.12 0.06 0.11 0.29 0.52 0.42 0.26 0.25 0.25 0.26 0.35 0.75 1.26 1.63 1.63
0.17 0.17 0.17 0.19 0.23 0.26 0.26 0.23 0.21 0.18 0.21 0.27 0.28 0.27 0.30 0.32 0.28 0.29 0.28 0.30 0.31 0.26 0.22 0.16 0.09 0.10 0.16 0.26 0.32 0.24 0.17 0.14 0.14 0.18 0.41 0.72 1.05 1.25